User: anonymous   Login
Location: Arroyo de Valdeoliva
(40.1604°N, 4.9878°W)
Time: 22:20:25
(UTC+00:00)
Language:

Envisat - Orbit

View from above orbital plane
View from above orbital plane
View from above satellite
View from above satellite

Ground track
Ground track

The orbit is defined by the following mean orbital elements,

1 27386U          26071.47222045 +.00000000 +00000-0 +68716-4 0 00003
2 27386  98.3732  25.0034 0001309  83.1199  26.8150 14.39038169    04
Epoch (UTC): 12 March 2026 11:19:59
Eccentricity: 0.0001309
inclination: 98.3732°
perigee height: 761 km
apogee height: 763 km
right ascension of ascending node: 25.0034°
argument of perigee: 83.1199°
revolutions per day: 14.39038169
mean anomaly at epoch: 26.8150°

The dashed part of the orbit path shows where the satellite is in the earth's shadow,  

DLR